Weather History for Lebanon, NH

Change the Weather History Date:

Friday, April 11, 2014

  Actual Average Record
Temperature  
Mean Temperature 52 °F -  
Max Temperature 68 °F 51 °F 84 °F (1945)
Min Temperature 36 °F 28 °F 13 °F (1938)
Degree Days  
Heating Degree Days 14    
Growing Degree Days 2 (Base 50)    
Moisture  
Dew Point 31 °F    
Average Humidity 55    
Maximum Humidity 97    
Minimum Humidity 16    
Precipitation  
Precipitation 0.04 in - - ()
Sea Level Pressure  
Sea Level Pressure 29.94 in    
Wind  
Wind Speed 7 mph (SW)    
Max Wind Speed 13 mph    
Max Gust Speed 33 mph    
Visibility 9 miles    
Events Rain    
Averages and records for this station are not official NWS values.
T = Trace of Precipitation, MM = Missing Value Source: NWS Daily Summary

Daily Weather History Graph

Daily Weather History Graph

Search for Another Location

Airport:

Trip Planner

Search our weather history database for the weather conditions in past years. The results will help you decide how hot, cold, wet, or windy it might be!

Date:

Astronomy

Apr. 11, 2014 Rise Set
Actual Time 6:13 AM EDT 7:27 PM EDT
Civil Twilight 5:43 AM EDT 7:57 PM EDT
Nautical Twilight 5:08 AM EDT 8:33 PM EDT
Astronomical Twilight 4:30 AM EDT 9:10 PM EDT
Moon 3:59 PM EDT (4/11) 4:13 AM EDT (4/11)
Length of Visible Light 14h 13m
Length of Day
13h 14m
Waxing Gibbous, 87% of the Moon is Illuminated
Apr 11
Waxing Gibbous
Apr 15
Full
Apr 22
Last Quarter
Apr 29
New
May 6
First Quarter

Hourly Weather History & Observations

Time (EDT) Temp. Windchill Dew Point Humidity Pressure Visibility Wind Dir Wind Speed Gust Speed Precip Events Conditions
12:53 AM 48.0 °F - 27.0 °F 44% 29.89 in 10.0 mi South 11.5 mph - N/A   Clear
1:53 AM 48.0 °F - 28.9 °F 48% 29.88 in 10.0 mi SSW 4.6 mph - N/A   Scattered Clouds
2:53 AM 48.0 °F - 30.9 °F 52% 29.86 in 10.0 mi SSW 12.7 mph - N/A   Clear
3:53 AM 46.9 °F - 32.0 °F 56% 29.85 in 10.0 mi SSW 10.4 mph - N/A   Mostly Cloudy
4:53 AM 46.0 °F 41.9 °F 33.1 °F 61% 29.86 in 10.0 mi South 8.1 mph - N/A   Mostly Cloudy
5:53 AM 46.0 °F - 33.1 °F 61% 29.88 in 10.0 mi Calm Calm - N/A   Clear
6:53 AM 43.0 °F - 33.1 °F 68% 29.91 in 10.0 mi Calm Calm - N/A   Overcast
7:53 AM 45.0 °F - 35.1 °F 68% 29.94 in 10.0 mi Calm Calm - N/A   Overcast
8:53 AM 50.0 °F - 35.1 °F 57% 29.95 in 10.0 mi Calm Calm - N/A   Scattered Clouds
9:53 AM 55.0 °F - 34.0 °F 45% 29.96 in 10.0 mi Calm Calm - N/A   Clear
10:53 AM 60.1 °F - 25.0 °F 26% 29.94 in 10.0 mi West 10.4 mph - N/A   Clear
11:53 AM 63.0 °F - 25.0 °F 24% 29.93 in 10.0 mi West 12.7 mph - N/A   Clear
12:53 PM 66.0 °F - 21.0 °F 18% 29.92 in 10.0 mi NW 12.7 mph - N/A   Clear
1:53 PM 66.0 °F - 18.0 °F 16% 29.93 in 10.0 mi WNW 11.5 mph 17.3 mph N/A   Clear
2:53 PM 66.9 °F - 19.0 °F 16% 29.91 in 10.0 mi WNW 9.2 mph - N/A   Clear
3:53 PM 66.9 °F - 21.0 °F 17% 29.91 in 10.0 mi West 8.1 mph - N/A   Clear
4:53 PM 64.9 °F - 23.0 °F 20% 29.90 in 10.0 mi NNW 8.1 mph - N/A   Mostly Cloudy
5:53 PM 60.1 °F - 27.0 °F 28% 29.94 in 10.0 mi SSW 12.7 mph 33.4 mph N/A   Overcast
6:01 PM 59.0 °F - 28.0 °F 31% 29.95 in 9.0 mi South 10.4 mph 23.0 mph 0.00 in Rain Light Rain
6:53 PM 48.0 °F - 43.0 °F 83% 30.01 in 10.0 mi South 4.6 mph - 0.01 in   Overcast
7:53 PM 46.0 °F 43.9 °F 43.0 °F 89% 30.01 in 10.0 mi South 4.6 mph - 0.01 in Rain Light Rain
8:53 PM 45.0 °F - 42.1 °F 90% 30.02 in 10.0 mi Calm Calm - 0.02 in Rain Light Rain
9:53 PM 45.0 °F 42.6 °F 42.1 °F 90% 30.02 in 10.0 mi SSE 4.6 mph - 0.00 in   Mostly Cloudy
10:53 PM 41.0 °F - 37.0 °F 86% 30.01 in 2.0 mi Calm Calm - N/A   Scattered Clouds
11:04 PM 37.9 °F - 36.0 °F 93% 30.01 in 3.0 mi Calm Calm - N/A   Scattered Clouds
11:51 PM 37.4 °F - 35.6 °F 93% 30.01 in 5.0 mi Calm Calm - N/A   Partly Cloudy
11:53 PM 36.0 °F - 35.1 °F 97% 30.01 in 5.0 mi Calm Calm - N/A   Partly Cloudy